Flag for Chad Weather past 2 weeks in Ndjamena, Chad

Now
99 °F

Passing clouds.


Feels Like: 115 °F
Forecast: 83 / 109 °F
Wind: 13 mph from South

Location: Ndjamena

Current Time: May 23, 2015 at 12:15:00 PM

Latest Report: May 23, 2015 at 11:00 AM


Visibility: N/A

Pressure: 29.86 "Hg

Humidity: 50%

Dew point: 77 °F

Location of NdjamenaLocation

Historic Weather in Ndjamena — Graph

°F

Ndjamena temperature yesterday

Maximum temperature yesterday: 111 °F (at 4:00 PM)
Minimum temperature yesterday: 86 °F (at 5:00 AM)
Average temperature yesterday: 97 °F

Past Weeks' High & Low Weather Summary

 TemperatureHumidityPressure
High111 °F (May 18, 2:00 PM)79% (May 13, 6:00 AM)29.92 "Hg (May 13, 6:00 AM)
Low79 °F (May 17, 5:00 AM)11% (May 18, 1:00 PM)29.65 "Hg (May 18, 5:00 PM)
Average95 °F41%29.79 "Hg
* Reported May 8 11:00 AM — May 23 11:00 AM, Ndjamena, Weather by CustomWeather, © 2015

Note: Actual official high and low records may vary slightly from our data, if they occured in-between our weather recording intervals... More about our weather records

Advertising

Ndjamena weather history for previous 24 hours

 ConditionsComfort  
Time TempWeatherWind HumidityBarometerVisibility
11:00 AM
Sat, May 23
99 °FPassing clouds.13 mph50%29.86 "HgN/A
10:00 AM97 °FPassing clouds.17 mph53%29.89 "HgN/A
9:00 AM93 °FSunny.14 mph59%29.89 "Hg10 mi
8:00 AM91 °FSunny.8 mph59%29.86 "Hg10 mi
7:00 AM86 °FSunny.5 mph62%29.83 "Hg10 mi
6:00 AM82 °FSunny.No wind74%29.80 "Hg10 mi
5:00 AM82 °FClear.No wind70%29.80 "Hg10 mi
4:00 AM82 °FClear.No wind66%29.80 "Hg10 mi
3:00 AM84 °FClear.No wind62%29.77 "Hg10 mi
2:00 AM86 °FClear.No wind62%29.80 "Hg10 mi
1:00 AM88 °FClear.9 mph59%29.77 "Hg10 mi
12:00 AM90 °FClear.No wind55%29.77 "Hg10 mi
11:00 PM
Fri, May 22
91 °FClear.No wind52%29.80 "Hg10 mi
10:00 PM93 °FClear.3 mph53%29.80 "Hg10 mi
9:00 PM93 °FClear.5 mph49%29.77 "Hg10 mi
8:00 PM93 °FClear.5 mph53%29.77 "Hg5 mi
7:00 PM95 °FClear.12 mph50%29.74 "Hg4 mi
6:00 PM106 °FClear.7 mph22%29.71 "Hg5 mi
5:00 PM109 °FPassing clouds.3 mph19%29.71 "HgN/A
4:00 PM111 °FPassing clouds.No wind21%29.68 "HgN/A
2:00 PM109 °FPassing clouds.12 mph25%29.74 "HgN/A
1:00 PM108 °FPassing clouds.12 mph28%29.77 "HgN/A
12:00 PM108 °FClear.9 mph30%29.80 "Hg5 mi
Weather by CustomWeather, © 2015

See weather overviewHow to use our weather pages